[[{"header":{"parameterUnit":"m.s-1","parameterCategory":1,"la1":30.2991,"la2":30.254,"lo1":-89.0895,"lo2":-89.0444,"dy":0.0017,"dx":0.0017,"nx":28,"ny":28,"refTime":"2025-01-08T03:00:00:Z","depth":0,"parameterNumber":2,"parameterNumberName":"U-component_of_WINDS"},"data":[0,0,0,0,0,0,0,0,0,0,0,0,0,0,0,0,0,0,0,0,0,0,0,0,0,0,0,0,0,0,0,0,0,0,0,0,0,0,0,0,0,0,0,0,0,0,0,0,0,0,0,0,0,0,0,0,0,0,-4.4965,-4.4965,0,-4.5014,-4.5014,-4.5015,-4.4918,-4.4915,-4.4912,-4.4909,-4.496,-4.4964,-4.4968,0,0,0,0,0,0,0,0,0,0,0,0,0,-4.4786,-4.479,-4.4964,-4.4965,-4.4966,-4.5014,-4.5014,-4.5015,-4.4919,-4.4915,-4.4911,-4.4907,-4.4958,-4.4964,-4.4969,0,0,0,0,0,0,0,0,0,0,0,0,0,-4.4853,-4.4791,-4.4964,-4.4923,-4.492,-4.5014,-4.5015,-4.5015,-4.492,-4.4915,-4.491,-4.4905,-4.4957,-4.4963,-4.4969,-4.5105,0,0,-4.4989,-4.4992,0,0,0,0,0,0,0,0,-4.4849,-4.4859,-4.4929,-4.4926,-4.4923,-4.4955,-4.497,-4.5046,-4.4921,-4.492,-4.4909,-4.4903,-4.4962,-4.4968,-4.4988,-4.5108,-4.511,-4.499,-4.4994,-4.4997,-4.4998,0,0,0,0,0,0,0,-4.4844,-4.4857,-4.4984,-4.493,-4.4926,-4.4902,-4.4907,-4.4984,-4.4967,-4.492,-4.4913,-4.492,-4.496,-4.4982,-4.4988,-4.5111,-4.499,-4.4995,-4.4999,-4.5002,-4.5344,-4.5349,0,0,0,0,0,0,-4.4845,-4.4853,-4.4982,-4.4985,-4.4873,-4.491,-4.4914,-4.495,-4.4966,-4.4964,-4.4924,-4.4915,-4.4973,-4.4981,-4.499,-4.515,-4.4997,-4.5003,-4.5006,-4.5339,-4.5345,-4.5351,0,0,0,0,0,0,-4.4842,-4.4857,-4.498,-4.4918,-4.4931,-4.4918,-4.4958,-4.4953,-4.4975,-4.4969,-4.4966,-4.495,-4.4969,-4.498,-4.5077,-4.515,-4.5006,-4.5011,-4.5333,-4.5341,-4.5348,-4.5471,0,0,0,0,0,0,-4.4837,-4.4857,-4.4908,-4.4919,-4.4935,-4.5068,-4.4963,-4.4957,-4.4986,-4.4975,-4.4992,-4.4991,-4.4967,-4.5068,-4.5084,-4.5156,-4.5017,-4.5326,-4.5336,-4.5346,-4.5461,-4.5482,-4.5501,0,0,0,0,0,-4.4831,-4.4941,-4.4912,-4.4928,-4.4999,-4.5072,-4.5081,-4.5051,-4.4993,-4.5044,-4.5041,-4.499,-4.5139,-4.5079,-4.5095,-4.5171,-4.5322,-4.5334,-4.5345,-4.5452,-4.5478,-4.55,0,0,0,0,0,0,-4.494,-4.4942,-4.4909,-4.5026,-4.505,-4.5056,-4.512,-4.508,-4.512,-4.5108,-4.5069,-4.5074,-4.5178,-4.5184,-4.5117,-4.5303,-4.5221,-4.5236,-4.5296,-4.5321,-4.5341,-4.5338,-4.5022,0,0,0,0,0,-4.4977,-4.5036,-4.5035,-4.5138,-4.5152,-4.5134,-4.5165,-4.5139,-4.5162,-4.5171,-4.5175,-4.5199,-4.5251,-4.5286,-4.5334,-4.5461,-4.5463,-4.5521,-4.5541,-4.5558,-4.5572,-4.5639,-4.5665,-4.5389,-4.5389,-4.5389,0,0,-4.5056,-4.5064,-4.5104,-4.5161,-4.5176,-4.5237,-4.5143,-4.5213,-4.5258,-4.5182,-4.5274,-4.5277,-4.5301,-4.5413,-4.5463,-4.5422,-4.5649,-4.5573,-4.5586,-4.5591,-4.5654,-4.568,-4.5704,-4.5397,-4.5396,-4.5394,0,0,-4.523,-4.5242,-4.533,-4.5347,-4.5371,-4.5358,-4.5379,-4.5391,-4.5391,-4.5482,-4.5426,-4.5479,-4.557,-4.5589,-4.5611,-4.5793,-4.5748,-4.5809,-4.5915,-4.5981,-4.6003,-4.6022,-4.6087,-4.611,-4.5823,-4.5823,-4.5824,0,-4.5325,-4.5416,-4.538,-4.5454,-4.548,-4.5414,-4.5502,-4.552,-4.5559,-4.5579,-4.5531,-4.5644,-4.5655,-4.5771,-4.5816,-4.5835,-4.5858,-4.5807,-4.6002,-4.6021,-4.6038,-4.61,-4.6124,-4.5831,-4.583,-4.5829,-4.5828,0,-4.5531,-4.5595,-4.5662,-4.5701,-4.5735,-4.5816,-4.5793,-4.5832,-4.5803,-4.5796,-4.5889,-4.59,-4.5949,-4.5975,-4.5948,-4.6087,-4.6061,-4.6009,-4.5925,-4.6073,-4.613,-4.6153,-4.5841,-4.5839,-4.5836,-4.5835,0,0,-4.5776,-4.5794,-4.5819,-4.5836,-4.5857,-4.5906,-4.5983,-4.6031,-4.6065,-4.6093,-4.6157,-4.6235,-4.6187,-4.6212,-4.6186,-4.6245,-4.6388,-4.6185,-4.6185,-4.6223,-4.6542,-4.6582,-4.661,-4.6358,-4.6362,-4.6365,-4.654,0,-4.595,-4.6083,-4.6053,-4.6185,-4.6243,-4.618,-4.6248,-4.6268,-4.6263,-4.6312,-4.6305,-4.6362,-4.6293,-4.6308,-4.6363,-4.6359,-4.6451,-4.6346,-4.6417,-4.642,-4.6414,-4.664,-4.6682,-4.6847,-4.6562,-4.6566,-4.6569,0,-4.617,-4.6207,-4.6344,-4.6356,-4.6379,-4.644,-4.6481,-4.6529,-4.655,-4.6542,-4.657,-4.6533,-4.6609,-4.6524,-4.6629,-4.6557,-4.6585,-4.6587,-4.6593,-4.6599,-4.6504,-4.6653,-4.6898,-4.6923,-4.6604,-4.6601,-4.6598,0,-4.6336,-4.642,-4.6513,-4.6529,-4.6544,-4.6589,-4.6597,-4.6614,-4.6644,-4.668,-4.6699,-4.6744,-4.6768,-4.6803,-4.6779,-4.6719,-4.6888,-4.68,-4.6884,-4.6885,-4.6923,-4.6921,-4.7177,-4.694,-4.6939,-4.6939,-4.6938,0,-4.6533,-4.662,-4.6587,-4.6645,-4.674,-4.6704,-4.68,-4.6801,-4.6816,-4.6872,-4.682,-4.6874,-4.6838,-4.689,-4.6871,-4.6961,-4.6972,-4.6968,-4.6962,-4.6973,-4.6974,-4.6991,-4.6979,-4.6945,-4.6944,-4.6943,-4.6942,0,-4.6735,-4.6717,-4.6814,-4.6821,-4.6824,-4.6894,-4.6899,-4.6953,-4.6943,-4.7015,-4.703,-4.7015,-4.7072,-4.7051,-4.7112,-4.71,-4.7215,-4.7193,-4.7208,-4.7203,-4.7287,-4.728,-4.7564,-4.76,-4.7339,-4.7341,-4.7343,0,-4.6863,-4.6928,-4.6941,-4.6975,-4.6988,-4.7043,-4.7073,-4.7041,-4.7075,-4.7104,-4.7154,-4.7206,-4.7247,-4.7341,-4.7336,-4.7382,-4.7362,-4.7458,-4.7369,-4.7378,-4.7364,-4.7361,-4.7367,-4.7477,-4.748,-4.7482,-4.7484,0,-4.7091,-4.7079,-4.7125,-4.7168,-4.7206,-4.7239,-4.7266,-4.7297,-4.7266,-4.7307,-4.7364,-4.7396,-4.7458,-4.7511,-4.7552,-4.756,-4.7518,-4.7512,-4.7534,-4.7547,-4.7552,-4.7551,-4.7257,-4.7506,-4.7504,-4.7502,-4.7501,-4.75,-4.726,-4.7315,-4.7333,-4.7386,-4.7403,-4.7431,-4.7481,-4.7477,-4.7525,-4.7573,-4.755,-4.7618,-4.7637,-4.7688,-4.7702,-4.7754,-4.7716,-4.7748,-4.7756,-4.7765,-4.7776,-4.7543,-4.7761,-4.7761,-4.776,-4.7759,-4.7759,0,-4.7486,-4.7495,-4.7544,-4.7584,-4.7626,-4.7581,-4.7609,-4.7647,-4.7707,-4.7728,-4.7769,-4.7835,-4.7886,-4.7885,-4.7932,-4.7974,-4.7955,-4.7987,-4.7984,-4.7987,-4.7806,-4.7783,-4.8001,-4.8001,-4.8001,-4.8001,-4.8001,-4.8001,-4.7609,-4.77,-4.7689,-4.7788,-4.7795,-4.786,-4.788,-4.7905,-4.7922,-4.7998,-4.804,-4.8039,-4.8051,-4.8098,-4.8143,-4.8141,-4.8161,-4.8201,-4.8192,-4.8024,-4.8,-4.7977,-4.7954,-4.8205,-4.8206,-4.8368,-4.8369,-4.8371]},{"header":{"parameterUnit":"m.s-1","parameterCategory":1,"la1":30.2991,"la2":30.254,"lo1":-89.0895,"lo2":-89.0444,"dy":0.0017,"dx":0.0017,"nx":28,"ny":28,"refTime":"2025-01-08T03:00:00:Z","depth":0,"parameterNumber":3,"parameterNumberName":"V-component_of_WINDS"},"data":[0,0,0,0,0,0,0,0,0,0,0,0,0,0,0,0,0,0,0,0,0,0,0,0,0,0,0,0,0,0,0,0,0,0,0,0,0,0,0,0,0,0,0,0,0,0,0,0,0,0,0,0,0,0,0,0,0,0,-3.8232,-3.8233,0,-3.8279,-3.828,-3.828,-3.8238,-3.8236,-3.8235,-3.8233,-3.828,-3.8283,-3.8286,0,0,0,0,0,0,0,0,0,0,0,0,0,-3.8103,-3.8106,-3.8232,-3.8233,-3.8233,-3.8279,-3.828,-3.8281,-3.8238,-3.8236,-3.8234,-3.8232,-3.828,-3.8283,-3.8286,0,0,0,0,0,0,0,0,0,0,0,0,0,-3.8156,-3.8106,-3.8232,-3.8218,-3.8217,-3.8279,-3.828,-3.8281,-3.8239,-3.8236,-3.8234,-3.8231,-3.8278,-3.8283,-3.8287,-3.8365,0,0,-3.83,-3.8302,0,0,0,0,0,0,0,0,-3.8153,-3.816,-3.8219,-3.8219,-3.8218,-3.825,-3.8252,-3.8309,-3.8239,-3.823,-3.8233,-3.823,-3.8272,-3.8277,-3.8292,-3.8368,-3.837,-3.83,-3.8303,-3.8305,-3.8306,0,0,0,0,0,0,0,-3.8149,-3.8158,-3.8251,-3.822,-3.8219,-3.8208,-3.8213,-3.8262,-3.8265,-3.8231,-3.8228,-3.8234,-3.8272,-3.8288,-3.8292,-3.837,-3.83,-3.8304,-3.8307,-3.8308,-3.8511,-3.8514,0,0,0,0,0,0,-3.8147,-3.8155,-3.8249,-3.8252,-3.8178,-3.8213,-3.8218,-3.8242,-3.8265,-3.8266,-3.8236,-3.8232,-3.8281,-3.8287,-3.8294,-3.8387,-3.8305,-3.8309,-3.8311,-3.8509,-3.8512,-3.8515,0,0,0,0,0,0,-3.8145,-3.8156,-3.8247,-3.8203,-3.8214,-3.8218,-3.8246,-3.8245,-3.8261,-3.8269,-3.8269,-3.8252,-3.828,-3.8288,-3.8348,-3.8388,-3.8311,-3.8315,-3.8505,-3.851,-3.8514,-3.8573,0,0,0,0,0,0,-3.8141,-3.8155,-3.8186,-3.8204,-3.8216,-3.8301,-3.8248,-3.8248,-3.8268,-3.8263,-3.8284,-3.8285,-3.8278,-3.8341,-3.8352,-3.8392,-3.8318,-3.8502,-3.8507,-3.8512,-3.8567,-3.8579,-3.8588,0,0,0,0,0,-3.8137,-3.8201,-3.8188,-3.8199,-3.8255,-3.8304,-3.8311,-3.8302,-3.8272,-3.8302,-3.8307,-3.8284,-3.8381,-3.8348,-3.8359,-3.8402,-3.8499,-3.8506,-3.8512,-3.8563,-3.8576,-3.8588,0,0,0,0,0,0,-3.8187,-3.8203,-3.8189,-3.8261,-3.8281,-3.8296,-3.8334,-3.8317,-3.8346,-3.834,-3.8328,-3.8333,-3.8396,-3.8404,-3.8367,-3.8478,-3.8435,-3.8444,-3.847,-3.8483,-3.8493,-3.849,-3.8322,0,0,0,0,0,-3.8207,-3.8246,-3.8257,-3.8319,-3.833,-3.8331,-3.8352,-3.8343,-3.8364,-3.8372,-3.8382,-3.8402,-3.8437,-3.8461,-3.8493,-3.8568,-3.8572,-3.8603,-3.8613,-3.8622,-3.863,-3.8669,-3.8682,-3.8536,-3.8536,-3.8536,0,0,-3.8247,-3.8261,-3.8286,-3.833,-3.8345,-3.8385,-3.8338,-3.8383,-3.8412,-3.8379,-3.8436,-3.8443,-3.8465,-3.8533,-3.8563,-3.8542,-3.8671,-3.863,-3.8636,-3.864,-3.8677,-3.8691,-3.8703,-3.854,-3.8539,-3.8539,0,0,-3.8342,-3.8357,-3.841,-3.8425,-3.8448,-3.8448,-3.8461,-3.8478,-3.8482,-3.8539,-3.8515,-3.8549,-3.861,-3.8626,-3.8642,-3.8742,-3.8721,-3.8752,-3.8807,-3.8845,-3.8857,-3.8867,-3.8902,-3.8915,-3.876,-3.876,-3.876,0,-3.839,-3.845,-3.8439,-3.8485,-3.8505,-3.8476,-3.8529,-3.8545,-3.8577,-3.8591,-3.8567,-3.8642,-3.8655,-3.8725,-3.8749,-3.8764,-3.8777,-3.875,-3.8856,-3.8866,-3.8876,-3.8909,-3.8922,-3.8764,-3.8764,-3.8763,-3.8763,0,-3.8507,-3.8549,-3.8588,-3.8621,-3.8644,-3.8694,-3.869,-3.8715,-3.8704,-3.8706,-3.8764,-3.8778,-3.8812,-3.8828,-3.8818,-3.8897,-3.8883,-3.8858,-3.8815,-3.8893,-3.8924,-3.8937,-3.8769,-3.8768,-3.8767,-3.8766,0,0,-3.8636,-3.8661,-3.8675,-3.8689,-3.8712,-3.8743,-3.8791,-3.8825,-3.8846,-3.8869,-3.8908,-3.896,-3.8936,-3.8955,-3.8946,-3.8979,-3.9056,-3.895,-3.895,-3.8969,-3.9143,-3.9162,-3.9177,-3.9043,-3.9045,-3.9047,-3.9141,0,-3.8731,-3.8814,-3.8805,-3.8884,-3.8922,-3.8895,-3.8936,-3.8954,-3.8956,-3.8988,-3.899,-3.9027,-3.8993,-3.9004,-3.9036,-3.904,-3.9091,-3.9033,-3.9079,-3.908,-3.9074,-3.9194,-3.9214,-3.9302,-3.9153,-3.9155,-3.9157,0,-3.8854,-3.8881,-3.8964,-3.8979,-3.8995,-3.9032,-3.9062,-3.9093,-3.9112,-3.9111,-3.9131,-3.9116,-3.9163,-3.9119,-3.9182,-3.9143,-3.9161,-3.9166,-3.9169,-3.9173,-3.9124,-3.9201,-3.9331,-3.9344,-3.9176,-3.9174,-3.9173,0,-3.8939,-3.8996,-3.9053,-3.9065,-3.9085,-3.9112,-3.9121,-3.9138,-3.9159,-3.9184,-3.9197,-3.9228,-3.9245,-3.9269,-3.9262,-3.9231,-3.9327,-3.9282,-3.9327,-3.9328,-3.9349,-3.9348,-3.9484,-3.9361,-3.9361,-3.936,-3.936,0,-3.9047,-3.9098,-3.9091,-3.9126,-3.9183,-3.9171,-3.9227,-3.9233,-3.9248,-3.9283,-3.9261,-3.9294,-3.9283,-3.9315,-3.931,-3.9363,-3.9371,-3.9371,-3.937,-3.9374,-3.9374,-3.9385,-3.9379,-3.9364,-3.9363,-3.9362,-3.9362,0,-3.9152,-3.9149,-3.9209,-3.9223,-3.9227,-3.9268,-3.928,-3.9312,-3.9312,-3.9356,-3.9366,-3.9366,-3.9403,-3.9399,-3.944,-3.9436,-3.9502,-3.9493,-3.9496,-3.9494,-3.9539,-3.9535,-3.9687,-3.9706,-3.9571,-3.9572,-3.9573,0,-3.9221,-3.926,-3.9277,-3.9299,-3.931,-3.9346,-3.9367,-3.9356,-3.9379,-3.9403,-3.9432,-3.9467,-3.9494,-3.9553,-3.9557,-3.9588,-3.9579,-3.963,-3.9584,-3.9586,-3.958,-3.9577,-3.9581,-3.964,-3.9641,-3.9642,-3.9643,0,-3.9343,-3.9339,-3.937,-3.9401,-3.9426,-3.9449,-3.9471,-3.9489,-3.9481,-3.9507,-3.9544,-3.9565,-3.9607,-3.9641,-3.967,-3.9679,-3.966,-3.9658,-3.967,-3.9675,-3.9675,-3.9675,-3.9521,-3.9655,-3.9654,-3.9653,-3.9652,-3.9652,-3.9432,-3.9465,-3.9482,-3.9517,-3.9532,-3.9552,-3.9582,-3.9586,-3.9617,-3.965,-3.9642,-3.9684,-3.97,-3.9737,-3.9749,-3.9781,-3.9762,-3.978,-3.9784,-3.9789,-3.9794,-3.9669,-3.9786,-3.9786,-3.9786,-3.9786,-3.9785,0,-3.9553,-3.9562,-3.9594,-3.9624,-3.9651,-3.9631,-3.9653,-3.9677,-3.9714,-3.9731,-3.9758,-3.98,-3.9833,-3.9839,-3.987,-3.9895,-3.9887,-3.9903,-3.9901,-3.9904,-3.9809,-3.9796,-3.9909,-3.9909,-3.9909,-3.9909,-3.9909,-3.9909,-3.9619,-3.9673,-3.9672,-3.9733,-3.9742,-3.9783,-3.9797,-3.9815,-3.9828,-3.9877,-3.9904,-3.9907,-3.992,-3.9951,-3.998,-3.9981,-3.9993,-4.0014,-4.0011,-3.9923,-3.991,-3.9899,-3.9886,-4.0016,-4.0017,-4.0103,-4.0103,-4.0104]}]]